{"data":{"norad_id":45454,"intl_designator":"2020-020AG","name":"ONEWEB-0034","alt_names":[],"object_type":"PAYLOAD","status":"ACTIVE","operator":null,"country":"UK","launch_date":"2020-03-21","launch_site_code":"TYMSC","launch_vehicle":null,"mission":null,"orbit_class":"UNKNOWN","rcs_meters":null,"size_class":null,"mass_kg":null,"dimensions":null,"purposes":["comms"],"wikipedia_slug":null,"has_3d_model":false,"image_url":null,"decayed_at":null,"tle_current":{"epoch":"2026-09-20T04:58:51.227040Z","epoch_age_seconds":39759,"freshness":"FRESH","line1":"1 45454U 20020AG  26263.20753735  .00000133  00000+0  34083-3 0  9994","line2":"2 45454  87.8976   2.1866 0001867 103.0512 257.0824 13.11414533315043","mean_motion":13.11414533,"eccentricity":0.0001867,"inclination_deg":87.8976,"raan_deg":2.1866,"arg_perigee_deg":103.0512,"mean_anomaly_deg":257.0824,"bstar":0.00034083,"rev_number":31504,"period_min":109.8050969975,"perigee_km":1216.2738707612,"apogee_km":1219.1101533143,"semimajor_km":7595.8290120377,"source":"CELESTRAK","updated_at":"2026-09-20T09:00:44.558620Z"}}}